Location: Igon
(43.1667°N, 0.2333°W)
Time: 10:02:34
(UTC+00:00)

CENTAUR R/B - Pass Details

Date: 29 November 2020
Orbit: 750 x 1438 km, 63.4° (Epoch: 11 January)

Event Time Altitude Azimuth Distance (km) Brightness Sun altitude
Exits shadow 04:01:37 79° 337° (NNW) 1,408 3.1 -33.9°
Maximum altitude 04:02:16 88° 56° (NE) 1,394 3.1 -33.8°
Drops below altitude 10° 04:11:10 10° 145° (SE) 3,539 5.8 -32.2°
Sets 04:14:08 0° 146° (SE) 4,511 6.4 -31.7°
